DW0465 Weather Reports


Display with metric or nautical units.
time (UTC)temp
F
wind
direction
speed
MPH
gust
MPH
rain 1hr
in
rain 24hr
in
rain mn
in
humidity
%
barometer
mb
20260506044526 31 12 0.0 0.0 0.00 0.00 0.00 74 1019.2
20260506043014 31 360 0.0 4.0 0.00 0.00 0.00 71 1019.0
20260506041511 32 346 0.0 2.0 0.00 0.00 0.00 70 1018.9
20260506040008 32 52 0.0 0.0 0.00 0.00 0.00 72 1018.6
20260506034510 32 95 0.0 0.0 0.00 0.00 0.00 71 1018.4
20260506033006 33 42 0.0 0.0 0.00 0.00 0.00 65 1018.1
20260506031511 33 350 0.0 4.0 0.00 0.00 0.00 62 1017.6
20260506030120 33 355 0.0 3.0 0.00 0.00 0.00 63 1017.3
20260506024559 33 355 0.0 4.0 0.00 0.00 0.00 64 1017.0
20260506023056 34 342 0.0 5.0 0.00 0.00 0.00 64 1016.6
20260506021559 34 343 0.0 4.0 0.00 0.00 0.00 65 1016.4
20260506020052 34 315 0.0 3.0 0.00 0.00 0.00 67 1016.2
20260506014558 34 301 0.0 1.0 0.00 0.00 0.00 70 1015.9
20260506013054 33 299 0.0 3.0 0.00 0.00 0.00 74 1015.9
20260506011548 33 69 0.0 2.0 0.00 0.00 0.00 73 1015.8
20260506010053 33 15 0.0 7.0 0.00 0.00 0.00 74 1016.0
20260506004551 33 355 0.0 3.0 0.00 0.00 0.00 72 1015.6
20260506003045 34 322 0.0 4.0 0.00 0.00 0.00 70 1015.4
20260506001546 34 5 0.0 1.0 0.00 0.00 0.00 69 1015.2
20260506000042 35 335 1.0 6.0 0.00 0.00 0.00 68 1015.1
20260505234540 34 313 0.0 6.0 0.00 0.00 0.00 73 1014.5
20260505233039 34 335 0.0 2.0 0.00 0.00 0.00 77 1014.5
20260505231538 33 321 0.0 2.0 0.00 0.00 0.00 82 1014.6
20260505230045 33 360 0.0 3.0 0.00 0.00 0.00 86 1014.4
20260505224537 33 344 0.0 2.0 0.00 0.00 0.00 83 1014.4
20260505223033 34 11 0.0 4.0 0.00 0.00 0.00 72 1014.1
20260505221529 36 60 0.0 2.0 0.00 0.00 0.00 63 1013.9
20260505220032 35 344 0.0 2.0 0.00 0.00 0.00 69 1013.8
20260505214533 34 309 0.0 4.0 0.00 0.00 0.00 76 1013.5
20260505213025 34 315 0.0 2.0 0.00 0.00 0.00 76 1013.7
20260505211523 34 315 0.0 2.0 0.00 0.00 0.00 73 1013.6
20260505210022 34 331 0.0 1.0 0.00 0.00 0.00 78 1013.5
20260505204518 35 340 0.0 4.0 0.00 0.00 0.00 66 1013.3
20260505203025 36 17 0.0 4.0 0.00 0.00 0.00 63 1013.3
20260505201514 36 24 0.0 2.0 0.00 0.00 0.00 63 1013.3
20260505200014 36 9 1.0 8.0 0.00 0.00 0.00 65 1013.2
20260505194511 37 13 0.0 3.0 0.00 0.00 0.00 63 1013.1
20260505193010 37 355 0.0 3.0 0.00 0.00 0.00 63 1013.1
20260505191508 38 11 0.0 3.0 0.00 0.00 0.00 55 1013.0
20260505190006 39 53 0.0 4.0 0.00 0.00 0.00 52 1013.0
20260505184506 39 336 0.0 6.0 0.00 0.00 0.00 49 1012.9
20260505183005 40 42 0.0 5.0 0.00 0.00 0.00 46 1012.7
20260505181502 39 27 0.0 2.0 0.00 0.00 0.00 47 1012.7
20260505180107 39 42 0.0 2.0 0.00 0.00 0.00 48 1012.8
20260505174558 40 44 0.0 5.0 0.00 0.00 0.00 48 1012.8
20260505173100 41 5 0.0 5.0 0.00 0.00 0.00 47 1012.9
20260505171553 39 66 0.0 4.0 0.00 0.00 0.00 48 1012.8
20260505170051 39 342 0.0 2.0 0.00 0.00 0.00 48 1012.9
20260505164550 39 339 0.0 3.0 0.00 0.00 0.00 49 1013.1
20260505163049 37 5 0.0 3.0 0.00 0.00 0.00 51 1013.2
20260505161548 38 332 0.0 2.0 0.00 0.00 0.00 46 1013.1
20260505153049 39 349 0.0 3.0 0.00 0.00 0.00 49 1013.2
20260505151543 38 22 0.0 5.0 0.00 0.00 0.00 50 1013.3
20260505124515 36 315 0.0 0.0 0.00 0.00 0.00 64 1012.5
20260505123015 36 307 0.0 0.0 0.00 0.00 0.00 63 1012.3
20260505121511 36 307 0.0 0.0 0.00 0.00 0.00 64 1012.3
20260505120014 36 307 0.0 0.0 0.00 0.00 0.00 64 1012.3
20260505114509 36 307 0.0 0.0 0.00 0.00 0.00 64 1012.2
20260505113012 37 307 0.0 0.0 0.00 0.00 0.00 62 1012.3
20260505111517 37 306 0.0 0.0 0.00 0.00 0.00 62 1012.5
20260505101503 37 313 0.0 0.0 0.00 0.00 0.00 67 1012.5
20260505100002 37 342 0.0 0.0 0.00 0.00 0.00 65 1012.5
20260505094601 37 313 0.0 0.0 0.00 0.00 0.00 64 1012.5
20260505093059 37 332 0.0 0.0 0.00 0.00 0.00 59 1012.5
20260505091620 38 28 0.0 0.0 0.00 0.00 0.00 59 1012.5
20260505090121 38 13 0.0 1.0 0.00 0.00 0.00 59 1012.5
20260505084613 38 360 0.0 1.0 0.00 0.00 0.00 60 1012.6
20260505083106 38 27 0.0 1.0 0.00 0.00 0.00 60 1012.6
20260505081600 38 22 0.0 3.0 0.00 0.00 0.00 61 1012.7
20260505080059 39 42 0.0 1.0 0.00 0.00 0.00 60 1012.6
20260505074548 39 19 0.0 2.0 0.00 0.00 0.00 60 1012.6
20260505073053 39 348 0.0 2.0 0.00 0.00 0.00 59 1012.6
20260505071549 39 355 0.0 1.0 0.00 0.00 0.00 60 1012.4
20260505070050 40 347 0.0 5.0 0.00 0.00 0.00 60 1012.3
20260505064542 40 333 0.0 2.0 0.00 0.00 0.00 61 1012.1
20260505063049 40 342 0.0 3.0 0.00 0.00 0.00 63 1012.0
20260505061539 40 360 0.0 1.0 0.00 0.00 0.00 64 1012.0
20260505060053 40 336 0.0 6.0 0.00 0.00 0.00 65 1011.8